Flag for Germany Weather past 2 weeks in Heidelberg, Baden-Württemberg, Germany

Now
93 °F

Sunny.


Feels Like: 93 °F
Forecast: 64 / 91 °F
Wind: 2 mph from North

Location: Baden Wurttemberg - Neuostheim

Current Time: Aug 30, 2015 at 6:36:10 PM

Latest Report: Aug 30, 2015 at 5:50 PM


Visibility: 10 mi

Pressure: 29.98 "Hg

Humidity: 34%

Dew point: 61 °F

Location of HeidelbergLocation

Historic Weather in Heidelberg — Graph

°F

Heidelberg temperature yesterday

Maximum temperature yesterday: 88 °F (at 4:20 PM)
Minimum temperature yesterday: 63 °F (at 7:20 AM)
Average temperature yesterday: 79 °F

Past Weeks' High & Low Weather Summary

 TemperatureHumidityPressure
High93 °F (Aug 30, 4:50 PM)100% (Aug 17, 9:20 PM)30.27 "Hg (Aug 17, 9:20 PM)
Low54 °F (Aug 19, 5:20 AM)23% (Aug 22, 2:50 PM)29.68 "Hg (Aug 23, 4:50 PM)
Average70 °F63%30.01 "Hg
* Reported Aug 15 5:20 PM — Aug 30 5:20 PM, Heidelberg, Weather by CustomWeather, © 2015

Note: Actual official high and low records may vary slightly from our data, if they occured in-between our weather recording intervals... More about our weather records

Advertising

Heidelberg weather history for previous 24 hours

 ConditionsComfort  
Time TempWeatherWind HumidityBarometerVisibility
5:20 PM
Sun, Aug 30
93 °FSunny.3 mph32%30.01 "Hg10 mi
4:50 PM93 °FSunny.3 mph32%30.01 "Hg10 mi
4:20 PM91 °FPassing clouds.6 mph34%30.01 "HgN/A
3:50 PM91 °FPassing clouds.6 mph34%30.01 "HgN/A
3:20 PM91 °FPassing clouds.8 mph34%30.04 "HgN/A
2:50 PM90 °FPassing clouds.7 mph38%30.04 "HgN/A
2:20 PM90 °FPassing clouds.8 mph41%30.04 "HgN/A
1:50 PM90 °FPassing clouds.6 mph43%30.04 "HgN/A
1:20 PM88 °FPassing clouds.7 mph46%30.07 "HgN/A
12:50 PM86 °FPassing clouds.6 mph52%30.07 "HgN/A
12:20 PM86 °FSunny.6 mph52%30.07 "Hg10 mi
11:50 AM82 °FPassing clouds.7 mph58%30.09 "HgN/A
11:20 AM82 °FPassing clouds.7 mph58%30.09 "HgN/A
10:50 AM81 °FPassing clouds.6 mph62%30.09 "HgN/A
10:20 AM79 °FPassing clouds.5 mph65%30.09 "HgN/A
9:50 AM75 °FPassing clouds.6 mph74%30.09 "HgN/A
9:20 AM75 °FPassing clouds.5 mph74%30.09 "HgN/A
8:50 AM73 °FPassing clouds.5 mph78%30.09 "HgN/A
8:20 AM72 °FSunny.2 mph83%30.09 "Hg10 mi
7:50 AM70 °FSunny.3 mph94%30.07 "Hg6 mi
7:20 AM68 °FClear.2 mph100%30.07 "Hg4 mi
7:20 PM
Sat, Aug 29
86 °FSunny.3 mph46%30.07 "Hg10 mi
6:50 PM88 °FSunny.2 mph40%30.07 "Hg10 mi
6:20 PM88 °FSunny.2 mph40%30.09 "Hg10 mi
Weather by CustomWeather, © 2015

See weather overviewHow to use our weather pages